STARLINK-35285, 65807

Orbit data source: Space-Track

STARLINK-35285, 65807 is a payload satellite owned by SpaceX/Seattle (US) in SSO that was launched on Fri, 26 Sep 2025 UTC via an FALCON 9 launch vehicle from the Air Force Western Test Range (AFWTR). Payload-class satellites include a variety of spacecraft equipped with specific instruments for various scientific and technological missions. These include communications satellites like Starlink; space stations such as the ISS; scientific satellites like the Hubble; Earth observation satellites from companies like Planet Labs, Umbra, and HawkEye 360; GPS; miniature CubeSats for education and research; and military/defense satellites.

Loading next visibility...
Identifier
65807, 2025-218S
Orbit
SSO
Country
Flag of USUS
Related business
Manufacturer
SpaceX/Seattle
Mission
Operational Commercial Communications
Bus & Motor
STARLINK V2MO, Unknown motor
Mass
575 kg wet, ~530 kg dry
Launch date (UTC)
2025-09-26 (5 months ago)
Launch vehicle
FALCON 9
Launch site
Air Force Western Test Range (AFWTR)
Object type
Payload
Rocket body
Debris
Shape & HBR
Box + 2 Pan, 17.7 m
Radar Cross Section
36.964 m²

Expand to show TLE details & history
Last TLE update: 16 hours ago

TLE from 16 hours ago
0 STARLINK-35285
1 65807U 25218S   26062.20937339  .00002962  00000-0  20939-3 0  9991
2 65807  97.6029 286.5519 0002294  96.7153 263.4335 15.05653770 23993
Epoch: 2026-03-03T05:01Z
TLE epoch observation values (Epoch: 2026-03-03T05:01:29.860Z)
Latitude
-0.00004°
Longitude
50.18577°
Altitude
552.747 km
Speed
7.585 km/s
True Right ascension
19h 06m 12s
True Declination
0° 00' 00"
Sunlit
Object was in daylight at epoch
Visualization orbit readout
Latitude
Unknown
Longitude
Unknown
Altitude
Unknown
Speed
Unknown
Apparent Right ascension
Unknown
Apparent Declination
Unknown
Sunlit
N/A
Visualization observer readout
Local Sidereal Time
00:35:40
Azimuth
Unknown
Elevation
Unknown
Doppler factor
Unknown
Orbital elements
Apogee altitude
548.082 km
Perigee altitude
544.905 km
Semi-major axis
6,924.63 km
Eccentricity
0.00023
Inclination
97.6029°
RAAN
286.5519°
Arg. of periapsis
96.7153°
True anomaly
263.40739°
Mean anomaly
263.4335°
Eccentric anomaly
263.42044°
Mean motion
3.76659 °/min
Orbital period
95.58 mins
BSTAR
0.00020939
Loading maneuver chart data...
Computing Atmospheric mass density...
Loading historical data...
Loading historical data...
Loading historical data...
Loading historical data...
Loading historical data...
Loading historical data...
Loading historical data...

Documentation

Showing up to 5 results
|